星链-34157 (STARLINK-34157)

导读

STARLINK-34157是美国SpaceX公司星链(Starlink)星座的成员,于2025年5月21日发射升空。作为低轨通信卫星,它采用平板设计,配备太阳能电池阵与氪工质霍尔推进器,具备自主避撞能力,运行在近地轨道,旨在为全球尤其是基础设施匮乏地区提供高速低延迟宽带互联网服务,设计寿命5-7年,退役后会脱轨坠入大气层烧毁。

基本信息
目录编号:
64084
目录名称:
STARLINK-34157
国际标识:
2025-107W
轨道中心:
EARTH
卫星名称:
星链-34157
卫星全名:
星链-34157 (STARLINK-34157)
卫星状态:
在轨 (已飞行472 天)
发射日期:
2025-05-21 UTC
国别 :
美国 (US)
星等 :
--
轨道信息
数据来源 国际轨道数据 AOE轨道数据
星历时间 2026-09-05T10:43:50+0800
8小时前
查看轨道信息
2026-09-03T07:00:00+0800
2天前
查看轨道信息
半长轴 6861.152km 6861.179km
偏心率 0.0001177 0.0001269
轨道倾角 43.004° 43.004°
近地点辐角 224.732° 322.910°
升交点赤经 268.024° 280.200°
平近点角 135.344° 49.833°
近地点 482.207km 482.171km
远地点 483.823km 483.913km
周期 94.266分钟 94.267分钟
每日圈数 15.275915 15.275824
详细信息
固有亮度:
5
最大亮度:
2.5
卫星平台:
Starlink V1.0
覆盖范围:
全球
运营商:
太空探索技术公司
运营商所在国:
美国
制造商(研发单位):
太空探索技术公司
制造商所在国:
美国
使用方式:
暂无
卫星简介
Starlink 计划是 SpaceX 推出的全球卫星互联网项目,通过发射低轨道卫星,为全球尤其是偏远地区提供高速、低延迟的互联网服务。自 2019 年起,Starlink 已部署数千颗卫星,旨在缩小全球数字鸿沟,推动互联网普及。该项目还为军事、航空等行业提供通信支持,带来广泛经济效益。
2D轨道图
3D轨道图
轨道高度分析图
轨道倾角分析图
轨道综合分析图
查看轨道综合分析图
交会数据列表
事件ID 空间交会对象 最接近时刻(TCA) 交会距离 交会风险概率(CRP) 交会风险指数(CRI) 操作
CDM_260907-100105-653006-408421
2026-09-07T
10:01:18+0000
0.959 km
远距离
6.392049E-6 低风险 0.51
CDM_260907-091405-653006-408421
2026-09-07T
09:14:14+0000
1.216 km
极远距离
2.880974E-6 低风险 0.44
CDM_260907-064805-924806-408421
2026-09-07T
06:48:39+0000
1.720 km
极远距离
2.17079E-6 低风险 0.42
CDM_260907-113505-653006-408421
2026-09-07T
11:35:27+0000
1.799 km
极远距离
9.252635E-7 极低风险 0.34
CDM_260907-074005-653006-408421
2026-09-07T
07:40:05+0000
2.347 km
极远距离
5.362886E-7 极低风险 0.3
CDM_260907-104805-653006-408421
2026-09-07T
10:48:23+0000
2.690 km
极远距离
4.407495E-7 极低风险 0.28
CDM_260907-082705-653006-408421
2026-09-07T
08:27:09+0000
2.963 km
极远距离
3.963857E-7 极低风险 0.27